Harare Kutsaga, Zimbabwe

9:56 PM CAT on September 25, 2017 (GMT +0200)
Harare Kutsaga

Weather History for FVHA - May, 2014

Change the Weather History Date:

Thursday, May 15, 2014

  Actual Average Record
Temperature  
Mean Temperature 60 °F -  
Max Temperature 75 °F 72 °F 78 °F (2015)
Min Temperature 46 °F 46 °F 45 °F (2013)
Degree Days  
Heating Degree Days 4    
Growing Degree Days 10 (Base 50)    
Moisture  
Dew Point 45 °F    
Average Humidity 61    
Maximum Humidity 100    
Minimum Humidity 14    
Precipitation  
Precipitation 0.00 in 0.01 in - ()
Sea Level Pressure  
Sea Level Pressure 30.22 in    
Wind  
Wind Speed 4 mph ()    
Max Wind Speed 9 mph    
Max Gust Speed -    
Visibility 11.4 miles    
Events      
Averages and records for this station are not official NWS values.
T = Trace of Precipitation, MM = Missing Value Source: Averaged Metar Reports

Daily Weather History Graph

Daily Weather History Graph

Search for Another Location

Airport or City:

Trip Planner

Search our weather history database for the weather conditions in past years. The results will help you decide how hot, cold, wet, or windy it might be!

Date:

Astronomy

May. 15, 2014 Rise Set
Actual Time 6:13 AM CAT 5:30 PM CAT
Civil Twilight 5:50 AM CAT 5:53 PM CAT
Nautical Twilight 5:24 AM CAT 6:19 PM CAT
Astronomical Twilight 4:57 AM CAT 6:45 PM CAT
Moon 6:18 PM CAT (5/15) 6:38 AM CAT (5/15)
Length of Visible Light 12h 02m
Length of Day
11h 16m
Waxing Gibbous, 99% of the Moon is Illuminated
May 15
Waxing Gibbous
May 21
Last Quarter
May 28
New
Jun 5
First Quarter
Jun 13
Full

Hourly Weather History & Observations

Time (CAT) Temp. Dew Point Humidity Pressure Visibility Wind Dir Wind Speed Gust Speed Precip Events Conditions
12:00 AM 53.6 °F 51.8 °F 94% 30.27 in - East 5.8 mph - N/A   Clear
2:00 AM 53 °F 51 °F 90%  in 16 mi 1.2 mph - -   Partly Cloudy
2:00 AM 53.6 °F 50.0 °F 88% 30.24 in 6.2 mi Variable 1.2 mph - N/A   Scattered Clouds
5:00 AM 51 °F 49 °F 90%  in 16 mi NE 4.6 mph - -   Clear
5:00 AM 51.8 °F 50.0 °F 94% 30.24 in - NE 4.6 mph - N/A   Clear
6:00 AM 48.2 °F 48.2 °F 100% 30.24 in 3.1 mi ESE 3.5 mph - N/A   Mist
7:00 AM 50.0 °F 50.0 °F 100% 30.24 in 3.1 mi ESE 3.5 mph - N/A   Mist
8:00 AM 57 °F 54 °F 85%  in 6 mi SE 4.6 mph - -   Haze
8:00 AM 57.2 °F 53.6 °F 88% 30.27 in - SE 4.6 mph - N/A   Clear
10:00 AM 66.2 °F 51.8 °F 60% 30.27 in 6.2 mi Variable 5.8 mph - N/A   Partly Cloudy
11:00 AM 69 °F 48 °F 36%  in 19 mi SW 8.1 mph - -   Scattered Clouds
11:00 AM 69.8 °F 46.4 °F 43% 30.27 in - SW 8.1 mph - N/A   Clear
12:00 PM 71.6 °F 44.6 °F 38% 30.24 in - South 6.9 mph - N/A   Clear
1:00 PM 71.6 °F 41.0 °F 33% 30.21 in - Variable 6.9 mph - N/A   Clear
2:00 PM 75.2 °F 39.2 °F 27% 30.18 in - WSW 8.1 mph - N/A   Clear
4:00 PM 73.4 °F 35.6 °F 25% 30.15 in - South 4.6 mph - N/A   Clear
5:00 PM 73 °F 34 °F 14%  in 19 mi WSW 1.2 mph - -  
5:00 PM 73.4 °F 33.8 °F 23% 30.18 in - Variable 1.2 mph - N/A   Clear
6:00 PM 60.8 °F 41.0 °F 48% 30.18 in - SSW 3.5 mph - N/A   Clear
7:00 PM 55.4 °F 37.4 °F 51% 30.18 in - SE 3.5 mph - N/A   Clear
8:00 PM 58 °F 38 °F 36%  in 19 mi East 6.9 mph - -  
8:00 PM 57.2 °F 37.4 °F 48% 30.21 in - East 6.9 mph - N/A   Clear
9:00 PM 57.2 °F 37.4 °F 48% 30.21 in - East 8.1 mph - N/A   Clear
10:00 PM 55.4 °F 48.2 °F 77% 30.21 in - East 8.1 mph - N/A   Clear
11:00 PM 57.2 °F 50.0 °F 77% 30.21 in - ENE 9.2 mph - N/A   Clear